Location: Aldenham
(51.6667°N, 0.3500°W)
Time: 03:06:04
(UTC+00:00)

Altair - Pass Details

Date: 23 February 2026
Orbit: 1502 x 1682 km, 47.2° (Epoch: 13 March)

Event Time Altitude Azimuth Distance (km) Brightness Sun altitude
Rises 04:57:35 0° 249° (WSW) 4,632 - -19.6°
Reaches altitude 10° 05:00:36 10° 246° (WSW) 3,657 - -19.2°
Exits shadow 05:03:34 24° 241° (WSW) 2,754 8.3 -18.7°
Maximum altitude 05:09:38 64° 168° (SSE) 1,664 7.7 -17.8°
Drops below altitude 10° 05:18:56 10° 90° (E) 3,761 10.9 -16.3°
Sets 05:22:05 0° 88° (E) 4,770 12.0 -15.8°
